Content
SEND FEEDBACK

Daily
Averages
Monthly
Summary
United States of America

MOORESTOWN, NEW JERSEY


Home > North America > United States > New Jersey
Elevation: 43 feet     Latitude: 39 58N     Longitude: 074 58W

WEATHER
 
SELECT A DAY
Number of Records: 195,097;   Date Range: 1/1/95 - 7/26/14
 
SHARE

PRINT THIS DATA

[ ← Previous Day ]
WEATHER ALMANAC - FEBRUARY 13, 2013
[ Next Day → ]
[ °C ]   °F
Weather ElementAverageHighLow
Temperature34.8 °F43 °F (1:54 pm)27 °F (3:54 am)
Dewpoint27.4 °F32 °F (7:35 pm)21.9 °F (3:54 am)
Humidity76.3 %93 % (10:09 pm)49 % (2:54 pm)
Barometer29.80 in29.99 in (1:54 am)29.70 in (4:54 pm)
Wind Speed5.3 mph8.1 mph (3:54 pm)
Weather ElementAverage
Visibility6.7 mi
Wind DirectionESE (127.8 °)

Weather ElementTotal
Precipitation0.22 in
Heating Degree Days30 (Base 65)
Averaged from 32 records on February 13, 2013
WEATHER CONDITIONS BREAKOUT
WIND DIRECTION BREAKOUT
WEATHER BY HOUR - FEBRUARY 13, 2013
[ °C ]   °F
Local TimeTemperatureDewpointHumidityBarometerVisibilityWind DirectionWind SpeedGust SpeedPrecipitationEventsConditions
1:54 AM30.0 °F24.1 °F79 %29.99 in10.0 miNW (310°)3.5 mphClear
2:54 AM28.9 °F24.1 °F82 %29.97 in10.0 miNNW (340°)3.5 mphClear
3:54 AM27.0 °F21.9 °F81 %29.94 in10.0 miCalmClear
4:54 AM27.0 °F21.9 °F81 %29.95 in10.0 miCalmClear
5:54 AM27.0 °F21.9 °F81 %29.93 in10.0 miCalmClear
6:54 AM27.0 °F23.0 °F85 %29.94 in10.0 miCalmClear
7:54 AM28.0 °F24.1 °F85 %29.93 in8.0 miCalmClear
8:54 AM34.0 °F25.0 °F70 %29.91 in10.0 miNE (50°)4.6 mphClear
9:54 AM37.0 °F24.1 °F59 %29.92 in10.0 miEast (90°)4.6 mphClear
10:54 AM39.0 °F25.0 °F57 %29.90 in10.0 miEast (80°)4.6 mphClear
11:54 AM39.9 °F25.0 °F55 %29.88 in10.0 miENE (60°)5.8 mphClear
12:54 PM41.0 °F25.0 °F53 %29.83 in10.0 miEast (90°)6.9 mphClear
1:54 PM43.0 °F26.1 °F51 %29.79 in10.0 miESE (120°)5.8 mphClear
2:54 PM43.0 °F25.0 °F49 %29.77 in10.0 miESE (120°)6.9 mphClear
3:54 PM43.0 °F27.0 °F53 %29.73 in10.0 miEast (80°)8.1 mphMostly Cloudy
4:54 PM42.1 °F27.0 °F55 %29.70 in10.0 miENE (60°)8.1 mphOvercast
5:54 PM41.0 °F28.9 °F62 %29.70 in10.0 miNE (40°)6.9 mph0.00 inOvercast
6:54 PM39.9 °F28.0 °F63 %29.71 in10.0 miENE (60°)4.6 mph0.00 inRainLight Rain
7:35 PM35.6 °F32.0 °F87 %29.73 in5.0 miNNE (20°)8.1 mph0.01 inRainLight Rain
7:54 PM35.1 °F30.9 °F85 %29.73 in4.0 miNorth (10°)8.1 mph0.02 inSnowLight Snow
8:41 PM33.8 °F30.2 °F87 %29.72 in2.0 miNNE (20°)8.1 mph0.03 inSnowLight Snow
8:54 PM34.0 °F30.9 °F89 %29.73 in2.5 miNNE (30°)5.8 mph0.03 inSnowLight Snow
9:09 PM33.8 °F30.2 °F87 %29.72 in2.5 miNNE (20°)6.9 mph0.01 inSnowLight Snow
9:31 PM33.8 °F30.2 °F87 %29.72 in2.0 miNNE (20°)6.9 mph0.02 inSnowLight Snow
9:42 PM33.8 °F30.2 °F87 %29.72 in1.8 miNorth (360°)5.8 mph0.02 inSnowLight Snow
9:54 PM33.1 °F30.9 °F92 %29.72 in1.5 miNorth (10°)6.9 mph0.03 inSnowLight Snow
10:09 PM33.8 °F32.0 °F93 %29.71 in2.0 miNorth (360°)5.8 mph0.00 inSnowLight Snow
10:18 PM33.8 °F30.2 °F87 %29.71 in2.5 miNorth (350°)6.9 mph0.00 inSnowLight Snow
10:54 PM33.1 °F30.9 °F92 %29.72 in1.8 miNorth (350°)6.9 mph0.02 inSnowLight Snow
11:06 PM33.8 °F30.2 °F87 %29.72 in2.0 miNorth (350°)6.9 mph0.00 inSnowLight Snow
11:17 PM33.8 °F30.2 °F87 %29.73 in4.0 miNorth (350°)6.9 mph0.01 inSnowLight Snow
11:54 PM33.1 °F30.9 °F92 %29.74 in3.0 miNNW (340°)5.8 mph0.02 inSnowLight Snow
Hourly data recorded from KPNE, located miles away from Moorestown, New Jersey







STORIES FROM OUR PARTNERS